#timestamp,LO_Frequency,Hit,StdDev 
1552093215.3,286047000.2,N
1552093235.2,286046998.9,N
1552093255.0,286046996.9,N
1552093255.9,286046996.9,N
1552093275.8,286046998.8,N
1552093295.6,286046999.2,N
1552093315.4,286046996.9,N
1552093335.3,286046999.1,N
1552093355.1,286046999.0,N
1552093375.8,286046998.7,N
1552093395.7,286047000.9,N
1552093415.5,286047000.2,N
1552093435.4,286047000.3,N
1552093455.2,286047002.7,N
1552093475.0,286047002.7,N
1552093475.9,286047002.7,N
1552093495.8,286046999.7,N
1552093515.6,286047002.2,N
1552093535.4,286047000.6,N
1552093555.3,286047000.9,N
1552093575.1,286047000.6,N
1552093595.9,286047002.1,N
1552093615.7,286046999.8,N
1552093635.5,286047001.0,N
1552093655.4,286047000.3,N
1552093675.2,286047000.9,N
1552093695.1,286047001.0,N
1552093696.0,286047001.0,N
1552093715.8,286046999.8,N
1552093735.6,286047002.0,N
1552093755.5,286047004.4,N
1552093775.3,286047004.0,N
1552093795.1,286047001.4,N
1552093815.9,286047001.9,N
1552093835.7,286047000.4,N
1552093855.6,286046998.6,N
1552093875.4,286046999.1,N
1552093895.2,286047000.7,N
1552093915.1,286047002.7,N
1552093916.0,286047002.7,N
1552093935.8,286047002.4,N
1552093955.7,286047001.9,N
1552093975.5,286047000.6,N
1552093995.3,286046998.4,N
1552094015.2,286046999.0,N
1552094035.0,286047001.2,N
1552094035.9,286047001.2,N
1552094055.8,286047000.0,N
1552094075.6,286047000.7,N
1552094095.4,286046999.7,N
1552094115.3,286047002.5,N
1552094135.1,286047000.3,N
1552094155.8,286047000.0,N
1552094175.7,286047001.2,N
1552094195.5,286046998.9,N
1552094215.4,286047000.6,N
1552094235.2,286047000.3,N
1552094255.0,286047000.1,N
1552094255.9,286047000.1,N
1552094275.8,286046999.8,N
1552094295.6,286047002.1,N
1552094315.4,286046999.0,N
1552094335.3,286046998.2,N
1552094355.1,286047001.7,N
1552094375.9,286047001.7,N
1552094395.7,286047000.0,N
1552094415.5,286047002.7,N
1552094435.4,286047001.7,N
1552094455.2,286047003.9,N
1552094475.0,286047001.4,N
1552094476.0,286047001.4,N
1552094495.8,286047001.6,N
1552094515.6,286047002.7,N
1552094535.5,286047002.5,N
1552094555.3,286047000.2,N
1552094575.1,286047001.8,N
1552094595.9,286047000.0,N
1552094615.7,286047000.1,N
1552094635.5,286046999.8,N
1552094655.4,286047000.0,N
1552094675.2,286047000.0,N
1552094695.1,286046999.7,N
1552094696.0,286046999.7,N
1552094715.8,286046999.7,N
1552094735.6,286047002.1,N
1552094755.5,286046999.8,N
1552094775.3,286047002.8,N
1552094795.2,286047000.5,N
1552094815.9,286047000.7,N
1552094835.7,286046999.8,N
1552094855.6,286047002.3,N
1552094875.4,286047001.4,N
1552094895.2,286047004.0,Y
1552094915.1,286047004.3,P
1552094916.0,286047004.3,N
1552094935.8,286047004.4,N
1552094955.7,286047001.7,N
1552094975.5,286047001.6,N
1552094995.3,286047006.0,Y
1552095015.2,286047000.0,P
1552095035.0,286047000.6,N
1552095035.9,286047000.6,N
1552095055.8,286047001.1,N
1552095075.6,286046997.1,N
1552095095.4,286046998.4,N
1552095115.3,286046999.6,N
1552095135.1,286046996.8,N
1552095155.9,286046995.6,N
1552095175.7,286046994.9,N
1552095195.5,286046997.7,N
1552095215.4,286046998.0,N
1552095235.2,286046997.0,N
1552095255.0,286046997.1,N
1552095255.9,286046997.1,N
1552095275.8,286046995.6,N
1552095295.6,286046998.0,N
1552095315.5,286046994.9,N
1552095335.3,286046996.0,N
1552095355.1,286046996.3,N
1552095375.9,286046997.3,N
1552095395.7,286046996.8,N
1552095415.6,286046994.9,N
1552095465.4,286046994.1,E
1552095475.3,286046997.2,N
1552095495.2,286047000.1,P
1552095515.0,286047003.5,N
1552095515.9,286047003.5,N
1552095535.8,286047005.3,N
1552095555.6,286047003.4,N
1552095575.4,286047003.4,N
1552095595.3,286047004.0,N
1552095615.1,286047003.6,N
1552095635.8,286047003.2,N
1552095655.7,286047003.9,N
1552095675.5,286047003.3,N
1552095695.4,286047003.6,N
1552095715.2,286047003.5,N
1552095735.0,286047003.2,N
1552095735.9,286047003.2,N
1552095755.8,286047001.3,N
1552095775.6,286047000.4,N
1552095795.4,286047000.9,N
1552095815.3,286047002.2,N
1552095835.1,286047001.4,N
1552095855.9,286047002.7,N
1552095875.7,286047004.1,N
1552095895.5,286047003.5,N
1552095915.4,286047003.5,N
1552095935.2,286047003.7,N
1552095955.0,286047003.7,N
1552095955.9,286047003.7,N
1552095975.8,286047004.4,N
1552095995.6,286047002.3,N
1552096015.5,286047001.9,N
1552096035.3,286047001.4,N
1552096055.1,286047003.8,Y
1552096075.9,286047000.2,P
1552096095.7,286047001.6,N
1552096115.5,286047004.4,P
1552096135.4,286047001.9,N
1552096155.2,286047002.5,N
1552096175.1,286047003.7,N
1552096176.0,286047003.7,N
1552096195.8,286047003.2,N
1552096215.6,286047004.0,Y
1552096235.5,286046998.8,P
1552096255.3,286046999.6,N
1552096275.1,286046995.0,N
1552096295.9,286046996.2,N
1552096315.7,286046998.0,N
1552096335.6,286046997.1,N
1552096355.4,286046999.5,N
1552096375.2,286046999.4,N
1552096395.1,286046998.6,N
1552096396.0,286046998.6,N
1552096415.8,286046999.1,N
1552096435.6,286046998.1,N
1552096455.5,286046997.7,N
1552096475.3,286046997.6,N
1552096495.2,286046996.2,N
1552096515.9,286046996.3,N
1552096535.7,286046998.0,N
1552096555.6,286046996.2,N
1552096575.4,286046993.9,Y
1552096595.2,286046995.1,P
1552096615.1,286046997.7,N
1552096616.0,286046997.7,N
1552096635.8,286046996.0,Y
1552096655.7,286046998.9,P
1552096675.5,286046999.5,N
1552096695.3,286046996.5,P
1552096715.2,286046998.8,N
1552096735.0,286046998.2,N
1552096735.9,286046998.2,N
1552096755.8,286047001.6,N
1552096775.6,286047001.7,N
1552096795.4,286047001.4,N
